Flag for United Kingdom Weather past 2 weeks in York, England, United Kingdom

Now
72 °F

Sunny.


Feels Like: 77 °F
Forecast: 60 / 86 °F
Wind: 13 mph from Southeast

Location: Linton-On-Ouse

Current Time: Jun 30, 2015 at 9:21:08 PM

Latest Report: Jun 30, 2015 at 8:50 PM


Visibility: N/A

Pressure: 29.98 "Hg

Humidity: 50%

Dew point: 52 °F

Location of YorkLocation

Historic Weather in York — Graph

°F

York temperature yesterday

Maximum temperature yesterday: 70 °F (at 3:50 PM)
Minimum temperature yesterday: 55 °F (at 1:50 AM)
Average temperature yesterday: 64 °F

Past Weeks' High & Low Weather Summary

 TemperatureHumidityPressure
High82 °F (Jun 30, 2:50 PM)100% (Jun 24, 1:50 AM)30.24 "Hg (Jun 24, 1:50 AM)
Low43 °F (Jun 24, 3:50 AM)35% (Jun 30, 5:50 PM)29.74 "Hg (Jun 22, 7:50 AM)
Average60 °F71%30.04 "Hg
* Reported Jun 15 7:50 PM — Jun 30 7:50 PM, York, Weather by CustomWeather, © 2015

Note: Actual official high and low records may vary slightly from our data, if they occured in-between our weather recording intervals... More about our weather records

Advertising

York weather history for previous 24 hours

 ConditionsComfort  
Time TempWeatherWind HumidityBarometerVisibility
7:50 PM
Tue, Jun 30
77 °FSunny.15 mph47%29.98 "HgN/A
6:50 PM79 °FSunny.15 mph45%29.98 "HgN/A
5:50 PM82 °FSunny.16 mph35%29.98 "HgN/A
4:50 PM82 °FSunny.16 mph40%30.01 "Hg10 mi
3:50 PM82 °FSunny.14 mph40%30.01 "Hg10 mi
2:50 PM82 °FSunny.14 mph40%30.04 "Hg10 mi
1:50 PM81 °FSunny.13 mph39%30.04 "Hg10 mi
12:50 PM79 °FSunny.13 mph42%30.07 "Hg10 mi
11:50 AM77 °FSunny.14 mph44%30.07 "Hg10 mi
10:50 AM75 °FSunny.13 mph47%30.07 "Hg10 mi
9:50 AM73 °FPassing clouds.14 mph53%30.07 "HgN/A
8:50 AM70 °FSunny.8 mph60%30.09 "Hg10 mi
7:50 AM66 °FSunny.6 mph68%30.09 "Hg10 mi
6:50 AM63 °FPassing clouds.6 mph73%30.09 "HgN/A
5:50 AM59 °FOvercast.7 mph82%30.09 "HgN/A
4:50 AM59 °FPassing clouds.3 mph82%30.09 "HgN/A
3:50 AM59 °FOvercast.3 mph82%30.09 "HgN/A
2:50 AM59 °FPassing clouds.5 mph82%30.09 "HgN/A
1:50 AM59 °FPartly cloudy.2 mph82%30.12 "HgN/A
12:50 AM61 °FPassing clouds.3 mph77%30.12 "HgN/A
11:50 PM
Mon, Jun 29
63 °FOvercast.2 mph68%30.12 "HgN/A
10:50 PM64 °FPassing clouds.1 mph64%30.12 "HgN/A
9:50 PM66 °FOvercast.5 mph56%30.12 "HgN/A
Weather by CustomWeather, © 2015

See weather overviewHow to use our weather pages